DECAYED

SS3 R/B, 60457 (Decayed)

Orbit data source: Space-Track

SS3 R/B, 60457 was space debris in LEO originally from a launch on Fri, 16 Aug 2024 UTC launched from the Sirharikota (SRI). Debris objects in space refer to the collection of defunct objects orbiting the Earth. Examples of debris include non-operational satellites, rocket bodies, and fragments generated from explosions, collisions, or faulty payload assembly.

Not visible in the next 10 days
Identifier
60457, 2024-147D
Orbit
Decayed
Country
Flag of ININ / IND
Related business
Manufacturer
ISRO
Mission
Decayed spacecraft
Bus & Motor
SS-3, Unknown motor
Mass
~400 kg wet, ~400 kg dry
Launch date (UTC)
2024-08-16 (2 years ago)
Launch vehicle
Unknown
Launch site
Sirharikota (SRI)
Object type
Payload
Rocket body
Debris
Shape & HBR
Cyl, 1.4 m
Radar Cross Section
5.969 m², Large (>1 m²)

Expand to show TLE details & history
Last TLE update: 8 months ago

TLE from 8 months ago
0 SS3 R/B
1 60457U 24147D   25330.29463554  .06855926  41750-5  56446-3 0  9992
2 60457  37.3387 169.6446 0004584 295.7733  64.2588 16.38654489 72936
Epoch: 2025-11-26T07:04Z
TLE epoch observation values (Epoch: 2025-11-26T07:04:16.510Z)
Latitude
0.00002°
Longitude
-1.89213°
Altitude
167.195 km
Speed
7.809 km/s
True Right ascension
11h 18m 34s
True Declination
0° 00' 00"
Sunlit
Object was in daylight at epoch
Visualization orbit readout
Latitude
Unknown
Longitude
Unknown
Altitude
Unknown
Speed
Unknown
Apparent Right ascension
Unknown
Apparent Declination
Unknown
Sunlit
N/A
Visualization observer readout
Local Sidereal Time
17:06:55
Azimuth
Unknown
Elevation
Unknown
Doppler factor
Unknown
Orbital elements
Apogee altitude
175.407 km
Perigee altitude
169.401 km
Semi-major axis
6,550.541 km
Eccentricity
0.00046
Inclination
37.3387°
RAAN
169.6446°
Arg. of periapsis
295.7733°
True anomaly
64.30613°
Mean anomaly
64.2588°
Eccentric anomaly
64.28246°
Mean motion
4.09381 °/min
Orbital period
87.94 mins
BSTAR
0.00056446
Loading maneuver chart data...
Computing Atmospheric mass density...
Loading historical data...
Loading historical data...
Loading historical data...
Loading historical data...
Loading historical data...
Loading historical data...
Loading historical data...
Other satellites on launch #147 in the year 2024 (2024-08-16 UTC)

Documentation

Showing up to 5 results
|